Theta_e
318 314 311 305 293 287 284 289 294 296 297 302 306 305 303 303 309 305 336 342 343 344 347 350 349 351 352 352 352 352 353 354 354 354 353 354 354 354 354 354 355 356 356 354 353 353 352 351 351
311 313 306 298 287 282 284 292 294 297 301 305 307 305 303 309 325 333 333 343 343 345 346 348 349 351 351 351 351 352 354 354 354 354 354 354 354 353 353 353 353 355 356 354 352 351 351 350 348
311 311 298 292 285 283 284 292 297 299 302 302 302 305 306 313 332 333 339 343 344 344 346 347 348 349 351 350 350 351 352 352 352 353 354 354 354 353 353 352 353 355 354 354 352 351 349 348 346
306 304 299 290 286 289 291 295 296 299 302 303 302 300 312 321 330 337 341 341 340 342 345 344 345 347 349 350 350 350 350 350 350 352 353 354 354 353 352 350 349 354 352 352 352 350 348 345 344
299 298 290 286 289 291 295 298 297 298 300 303 303 301 307 327 334 340 339 338 337 340 342 343 343 346 348 350 350 349 349 348 349 351 351 352 353 352 350 349 350 350 350 350 351 349 346 344 343
294 295 286 287 290 295 297 298 299 300 301 302 300 302 304 327 335 338 339 336 338 339 340 342 345 346 346 347 347 347 347 347 348 349 350 351 350 350 349 348 347 347 346 346 347 345 344 343 343
291 290 287 286 290 293 298 301 299 300 299 300 304 300 305 320 330 333 338 340 340 339 339 340 342 345 343 343 343 344 345 346 346 347 347 348 346 345 347 347 346 345 344 344 344 344 343 343 342
298 294 289 290 291 292 301 302 302 299 300 306 303 300 298 317 328 332 339 339 339 338 338 338 339 339 338 340 341 342 343 342 343 345 344 344 344 344 344 344 344 343 342 342 342 341 340 341 339
299 290 289 291 295 297 304 299 301 303 300 303 303 302 313 321 327 331 334 335 338 337 337 337 338 338 336 337 341 343 343 341 342 343 343 340 342 341 341 340 341 340 338 340 340 339 337 338 337
293 288 292 298 299 299 301 297 299 299 299 301 302 307 318 319 320 324 330 333 335 336 336 337 337 336 335 340 338 338 341 341 339 340 341 340 338 337 338 338 338 336 335 337 338 337 336 336 335
292 290 294 296 300 300 298 299 300 299 297 300 301 303 306 312 315 316 325 333 335 338 338 338 337 337 337 338 337 339 340 339 338 337 336 335 336 334 334 335 336 334 335 333 335 335 334 334 334
290 295 296 297 299 298 297 300 298 298 301 304 303 303 304 305 309 313 317 330 334 337 339 340 339 338 338 338 336 337 337 337 337 337 335 334 334 332 332 333 331 332 332 330 331 330 330 332 334
293 296 298 299 300 299 300 297 298 299 301 302 301 302 302 303 302 305 307 314 333 335 340 340 340 340 339 338 336 336 336 336 336 335 335 334 334 332 331 330 330 329 330 330 327 327 328 330 333
294 295 294 295 296 296 295 295 295 298 300 300 301 301 301 301 301 301 302 305 310 334 339 340 340 341 340 337 337 336 337 336 335 335 335 333 334 333 332 331 330 329 329 330 329 328 328 327 331
297 292 293 293 293 293 294 293 293 298 299 298 300 300 301 303 303 301 303 303 306 310 337 339 339 339 339 338 337 336 337 336 335 335 333 332 333 333 332 332 331 329 330 328 327 326 326 325 330
291 290 285 292 294 295 292 288 293 296 295 296 299 300 301 300 302 304 305 304 303 305 327 339 340 337 338 337 336 336 337 336 335 334 333 332 332 332 330 330 330 331 330 329 327 326 326 324 325
287 283 285 288 293 292 290 289 292 295 295 294 295 295 297 298 300 301 302 305 306 305 317 337 339 337 337 336 336 335 335 335 334 332 331 330 331 331 330 328 328 331 330 329 327 326 325 323 323
282 283 283 284 288 289 287 287 292 294 293 294 293 294 295 297 298 301 303 303 304 306 307 334 338 337 337 335 334 333 333 332 332 331 330 329 330 330 329 326 327 329 327 326 326 325 324 324 324
287 285 284 286 289 288 288 288 290 291 291 291 293 294 294 297 300 300 302 303 304 304 305 332 336 336 335 333 330 329 329 329 329 329 329 328 330 329 327 326 326 327 326 325 324 323 322 322 324
286 284 284 288 290 289 287 287 291 292 291 294 295 296 297 299 300 302 300 301 303 305 306 325 334 335 335 335 334 331 330 329 329 328 329 328 328 329 329 326 326 326 326 325 325 323 322 322 324
287 285 285 286 288 287 286 285 289 293 294 295 297 298 300 300 301 302 303 301 302 304 307 325 333 334 335 336 333 329 324 322 322 325 328 329 329 328 327 326 325 325 325 323 324 323 322 320 322
285 290 290 289 285 281 287 279 288 291 292 295 297 298 304 306 308 310 310 311 311 309 307 322 332 334 335 334 330 327 327 324 323 325 322 327 330 328 325 324 325 326 326 325 324 325 322 322 319
288 292 291 289 284 282 285 280 286 290 290 293 296 305 305 306 308 308 309 310 312 313 315 329 333 334 334 331 331 328 325 322 322 321 321 321 326 328 327 326 326 325 325 325 325 324 322 323 321
292 290 288 287 284 279 285 281 283 286 290 296 302 305 306 306 305 305 306 307 308 309 314 326 332 333 332 331 328 327 322 321 321 320 320 321 320 324 325 323 326 325 325 322 325 325 322 321 321
288 284 278 276 275 277 285 282 285 292 298 298 299 303 303 302 301 301 300 301 303 304 308 317 329 329 330 330 327 326 322 322 321 320 320 320 322 323 324 324 325 325 324 322 325 325 323 321 320
285 287 280 274 275 277 286 280 286 298 301 302 300 302 300 299 298 297 299 299 300 302 306 315 327 329 328 327 325 324 323 322 322 321 321 321 322 322 320 320 321 321 322 324 324 324 324 323 321
287 282 288 283 284 280 282 286 293 298 298 299 298 299 296 295 294 294 296 296 297 299 302 310 324 326 327 326 324 323 323 320 320 320 321 318 317 316 315 317 317 318 319 320 321 323 323 323 322
291 292 281 281 276 274 280 282 284 291 293 296 297 294 293 293 292 292 293 294 296 298 299 304 314 323 324 323 324 324 322 322 322 320 318 318 317 317 315 316 316 316 318 319 320 321 322 322 322
283 284 287 287 284 277 276 280 293 293 294 295 296 293 291 289 289 290 291 292 293 295 297 299 302 314 318 319 323 322 321 322 322 320 318 318 318 319 317 317 316 316 316 318 318 319 319 319 320
284 284 288 282 281 283 280 282 295 294 296 295 292 291 290 288 288 287 289 290 291 291 293 296 297 303 312 318 322 321 321 321 321 320 319 318 318 319 318 317 316 316 316 317 316 316 317 317 317
Wind_Speed
3 2 2 5 4 5 5 11 5 10 9 4 5 3 6 5 4 5 2 10 17 14 10 9 9 12 15 16 15 14 13 13 13 12 12 13 14 15 15 15 14 15 15 16 15 13 12 15 14
1 3 5 3 5 2 7 6 16 6 7 12 7 2 2 1 2 8 5 9 14 16 12 10 12 12 13 15 15 14 13 13 13 13 12 12 13 13 14 14 14 15 15 15 14 13 13 14 14
2 2 5 5 5 8 6 6 12 3 9 6 4 2 2 4 4 8 9 15 14 13 11 11 13 12 13 14 15 14 13 13 13 13 13 13 13 13 13 13 14 13 14 15 13 15 14 12 11
3 4 4 4 10 9 8 12 6 15 14 10 5 3 1 2 15 10 16 16 14 12 11 12 13 12 13 13 14 14 13 12 12 12 13 14 13 13 13 12 12 13 11 12 13 15 14 13 12
3 3 1 4 11 8 7 17 4 12 8 13 6 5 3 1 10 21 19 16 16 11 9 11 12 12 13 13 14 13 14 13 12 12 12 12 12 12 12 12 13 12 11 11 13 16 15 13 13
2 3 2 9 9 6 9 7 6 10 14 15 6 5 5 4 18 14 15 14 14 14 11 10 13 12 12 12 13 12 13 13 12 12 11 12 12 12 12 12 13 11 11 13 14 16 15 13 14
5 4 6 4 4 5 13 4 5 10 8 11 1 6 0 3 8 15 15 14 14 14 14 10 8 9 10 11 11 12 12 13 12 13 13 11 11 11 12 13 13 14 13 13 13 14 14 15 15
4 3 3 5 6 11 12 4 3 5 10 10 6 4 2 4 7 7 8 9 10 10 12 12 9 7 6 6 11 11 12 12 16 13 12 12 10 10 11 10 15 15 15 16 17 17 12 13 13
4 3 5 6 8 9 17 9 2 4 6 6 7 0 4 7 10 9 9 5 5 5 8 10 11 8 6 5 7 10 11 12 17 14 11 10 5 6 8 9 14 13 9 12 12 12 10 6 7
6 6 9 7 8 10 17 6 10 7 8 7 8 9 6 5 7 11 10 11 8 8 8 8 11 11 7 5 5 5 6 5 5 6 7 5 6 5 7 9 13 13 11 12 11 10 9 8 5
5 9 4 6 9 9 10 16 8 7 9 6 7 9 5 4 4 8 10 16 16 14 9 11 12 11 11 7 5 4 6 6 4 6 6 5 5 4 4 4 6 7 10 6 7 7 5 6 5
9 8 8 9 13 13 18 17 17 9 13 9 9 7 4 7 10 8 9 13 12 12 16 15 13 13 13 8 7 7 6 5 6 6 8 6 5 6 6 5 5 6 6 6 6 4 5 5 7
8 14 14 15 17 19 20 21 23 23 10 11 9 8 9 11 9 9 10 7 13 14 13 14 14 14 12 11 9 8 7 6 7 7 7 7 7 7 7 6 6 5 5 6 4 4 3 4 6
7 11 10 7 6 6 7 9 5 5 9 9 9 12 8 11 11 7 9 11 10 14 16 15 15 15 15 12 11 10 9 8 7 7 7 8 8 8 7 7 6 6 5 5 5 5 4 3 4
4 6 7 3 4 5 4 23 10 9 10 12 14 13 15 12 10 12 12 11 12 10 16 17 16 14 15 15 13 9 9 8 7 7 8 9 9 10 9 9 8 7 6 6 4 4 3 3 4
4 4 3 1 5 6 6 29 10 12 11 18 20 16 17 13 14 18 16 13 11 8 16 18 14 16 16 14 11 9 9 9 7 7 7 9 9 10 9 8 9 8 7 7 7 6 6 5 5
2 7 9 7 7 8 6 24 5 9 9 11 13 13 11 10 12 9 13 17 16 14 13 18 17 16 17 13 10 8 11 10 8 6 5 7 8 9 8 7 7 9 8 8 7 6 7 6 4
5 5 6 6 7 3 7 15 11 8 10 13 11 11 11 13 15 13 10 11 10 12 12 19 16 17 15 11 8 6 7 6 7 7 6 7 6 8 7 6 8 9 8 7 7 9 5 5 7
5 11 15 14 10 7 12 14 18 9 9 11 13 12 13 15 15 10 10 9 10 9 8 16 18 16 13 11 11 9 11 9 7 6 8 7 7 8 8 6 8 9 10 11 10 6 8 4 5
10 15 17 19 17 10 11 18 18 15 10 15 16 16 17 17 16 16 10 10 9 11 11 15 19 19 17 13 13 7 8 5 6 6 7 8 8 8 8 9 9 10 8 10 10 10 5 3 7
15 13 15 16 6 5 7 20 15 15 15 13 15 14 15 15 19 20 14 10 8 10 10 14 19 21 19 17 9 6 5 4 3 6 7 7 8 8 8 9 9 9 9 9 12 11 11 7 6
16 11 15 12 5 12 6 15 26 19 16 14 15 9 6 10 11 9 7 6 6 6 7 15 19 21 19 19 15 19 13 11 6 8 4 6 8 8 8 7 8 10 8 10 12 11 10 9 9
14 10 12 6 5 5 17 2 28 10 20 20 12 4 6 7 11 15 13 13 12 12 9 13 18 18 18 19 17 14 12 6 7 7 9 6 6 8 8 8 7 10 8 9 10 9 9 10 9
7 4 3 1 2 9 24 5 21 6 5 8 9 5 7 11 13 12 14 12 13 13 11 4 17 19 18 19 18 19 16 13 11 10 9 7 5 6 7 7 9 9 8 8 7 9 9 7 8
5 4 4 4 2 14 7 7 16 10 3 7 14 11 11 7 17 15 18 17 16 17 16 7 11 13 17 17 16 17 17 15 14 13 10 10 7 6 9 11 8 6 6 6 8 10 11 12 10
8 8 6 5 4 5 7 7 5 7 6 5 13 18 17 17 16 18 16 15 16 18 18 10 11 14 12 12 14 12 12 9 9 11 10 8 9 9 9 6 5 4 3 6 8 8 9 13 12
7 4 5 6 6 7 5 10 1 11 12 13 15 10 12 17 12 12 16 15 15 16 18 17 5 8 14 14 9 10 11 11 9 10 9 8 7 6 6 7 5 2 4 6 6 8 13 9 15
5 6 4 3 4 8 6 7 1 12 12 14 7 7 12 13 14 15 15 16 15 14 15 17 14 10 8 3 9 12 11 11 10 11 10 10 8 7 7 6 4 5 5 7 8 8 9 10 12
8 5 6 4 5 6 6 3 4 3 5 3 5 10 12 12 13 14 14 15 15 14 15 15 15 8 8 7 4 7 8 11 11 10 9 9 9 8 8 7 6 8 5 6 7 7 6 7 10
13 4 0 6 2 4 2 4 6 11 14 12 9 10 12 13 13 14 15 16 17 17 17 16 15 15 12 7 7 5 7 10 10 8 7 8 8 7 9 7 7 6 5 4 5 4 4 7 7
Wind_Direction
154 113 78 40 55 66 242 251 268 284 325 241 272 231 182 187 159 205 54 136 129 137 149 160 161 151 148 140 139 140 139 136 133 130 124 126 126 130 130 130 131 133 136 140 139 138 136 125 117
194 141 42 91 95 163 252 242 253 234 251 279 251 237 312 40 81 130 106 142 145 140 148 156 161 156 154 144 142 143 144 143 140 137 135 132 134 137 138 136 135 140 140 145 144 136 132 126 126
327 55 98 140 167 215 240 241 259 291 300 303 272 232 201 150 86 136 134 143 141 140 149 156 156 155 157 150 147 148 150 150 148 147 147 145 149 149 147 144 143 140 148 150 148 140 128 122 123
148 17 14 143 226 245 222 261 306 314 300 273 272 263 347 217 158 156 140 142 136 142 149 154 155 159 154 153 153 154 153 156 156 156 157 156 159 160 156 152 150 149 158 156 153 136 134 139 136
41 69 196 237 249 259 263 264 275 288 276 276 255 232 182 31 135 143 150 149 141 143 146 154 157 162 155 160 158 162 159 164 163 161 162 161 163 166 163 163 156 159 161 153 145 137 145 151 142
77 111 145 226 242 284 265 271 299 281 274 266 223 191 199 150 135 152 150 147 146 142 146 154 162 161 161 161 160 165 163 162 161 164 169 170 169 173 168 172 164 161 153 145 144 148 157 150 151
161 125 217 202 245 269 257 200 246 280 301 291 237 172 59 235 162 156 154 144 146 144 143 149 156 156 165 159 161 163 165 166 172 173 172 177 178 178 172 176 152 148 148 143 150 150 157 165 166
152 109 238 223 223 269 279 280 301 328 305 306 148 198 209 251 110 94 106 120 128 143 146 150 150 149 160 162 165 166 168 168 177 175 173 172 177 179 172 164 156 152 150 154 158 158 172 174 161
143 219 215 229 232 255 293 301 132 285 335 322 316 157 185 154 114 102 109 93 121 146 158 156 150 151 155 161 171 166 171 165 178 180 169 164 171 176 169 159 162 151 165 152 156 157 171 167 131
173 209 228 238 248 272 285 275 307 338 329 313 340 2 344 148 149 148 158 163 168 164 172 167 154 158 157 170 161 159 169 164 172 174 170 164 166 161 153 161 156 157 178 164 162 173 158 156 139
215 237 270 278 273 271 271 287 270 284 273 261 271 300 240 281 215 182 183 178 182 182 165 175 165 165 162 171 162 174 178 175 172 178 175 162 149 138 140 147 156 166 183 169 168 164 160 160 138
273 279 244 258 258 269 272 270 278 235 257 231 227 231 247 190 264 249 204 191 185 175 185 178 174 168 174 157 169 181 187 181 175 189 178 162 147 149 154 163 158 165 176 175 179 169 164 167 152
220 254 264 263 260 262 268 272 268 276 256 268 270 234 236 271 211 236 244 229 206 185 186 185 175 173 172 174 164 174 187 193 188 182 184 163 156 157 161 163 164 165 170 173 159 156 174 159 154
269 267 258 254 240 243 263 260 278 287 276 262 274 283 253 239 245 240 211 238 197 207 188 186 185 181 169 178 175 179 179 189 192 179 188 166 159 158 167 170 176 172 164 178 158 171 185 176 152
272 307 310 242 257 263 323 276 255 260 263 281 287 269 272 262 243 231 238 209 212 195 198 188 189 175 178 184 180 177 177 176 188 183 178 164 163 167 164 178 184 190 168 154 148 171 175 169 153
358 306 280 284 303 272 113 277 291 286 295 287 275 272 272 266 268 265 254 233 219 193 182 190 192 182 184 180 187 177 178 174 177 174 171 166 166 169 170 172 183 185 175 180 173 184 181 185 172
299 261 275 292 252 269 168 278 299 313 301 292 278 272 258 260 267 257 250 241 234 212 179 185 189 185 186 182 172 182 173 174 162 159 160 168 171 173 170 176 171 174 176 183 188 188 190 179 165
232 259 251 251 291 231 271 272 275 254 273 264 260 250 260 263 248 248 243 240 244 231 181 182 183 183 177 171 155 161 164 164 165 168 165 170 179 176 173 165 158 164 164 160 169 177 185 179 176
255 275 275 280 266 255 275 277 284 268 271 279 281 277 263 262 266 241 231 240 240 229 178 179 180 178 163 168 163 176 185 171 172 173 162 175 183 177 176 162 158 165 168 173 173 159 181 161 163
247 256 269 272 265 229 274 271 273 283 258 265 269 272 274 277 269 262 240 239 214 225 198 185 182 172 177 178 179 180 182 181 167 161 171 180 177 166 176 163 168 171 167 172 175 172 167 159 169
246 244 259 262 274 246 285 279 288 281 274 276 276 270 275 275 272 263 249 245 241 224 203 183 182 178 179 178 152 113 113 82 116 179 179 172 157 166 172 170 168 174 174 183 183 178 176 175 177
261 244 257 264 322 293 167 289 287 279 273 277 286 294 13 5 356 5 27 31 10 327 248 191 186 179 177 169 168 164 178 173 188 173 157 141 158 176 165 176 171 185 187 187 188 186 182 169 176
266 228 236 264 276 347 275 215 280 335 297 286 286 14 43 32 22 360 8 5 351 352 315 191 180 178 170 173 172 164 170 158 141 145 152 150 160 170 181 178 181 193 187 189 188 182 189 184 173
296 288 352 314 144 262 272 193 277 279 306 358 338 2 43 16 35 4 353 358 353 352 344 263 181 176 171 170 167 166 164 158 156 162 166 169 174 174 178 185 198 200 191 178 180 189 193 199 189
215 73 317 325 334 254 284 261 259 278 87 47 19 10 356 42 34 359 359 356 357 352 338 316 177 186 179 173 169 169 164 163 163 164 166 166 177 189 201 206 201 196 187 184 187 206 197 190 188
261 200 209 254 238 290 337 260 272 15 14 343 44 18 354 355 22 7 351 355 352 351 339 332 198 169 172 179 169 163 160 161 167 168 159 170 176 188 181 160 162 171 180 207 202 212 215 198 191
323 244 219 242 281 293 238 266 353 31 34 30 22 4 326 20 12 348 357 0 353 350 345 346 242 184 175 166 164 162 161 159 163 154 153 160 147 145 151 138 164 197 230 235 235 221 220 214 200
357 285 304 332 242 254 245 254 1 6 10 14 25 348 356 11 360 6 357 354 357 357 346 360 4 70 55 300 171 162 159 156 150 146 151 149 140 144 145 124 151 225 224 234 235 231 231 234 212
344 342 322 271 223 249 283 283 224 265 248 196 7 9 10 5 2 4 355 357 360 3 3 359 1 336 78 2 225 149 143 138 144 144 142 142 142 151 135 154 186 218 214 227 225 221 214 231 183
240 307 232 283 345 281 212 248 24 43 10 86 43 13 11 2 4 5 2 1 4 6 2 5 359 350 346 203 226 126 142 125 132 136 144 146 144 155 142 164 184 205 212 215 218 215 206 203 209